• In Uzbekistan
  • List of Countries
  • For 7 days
  • Water Temperature
  • Satellite Maps
  • Weather Map
  • Weather Widgets
  • user-avatar
    Login

    Hourly Weather Ischgl

    Today, 20 October, Saturday

    Time Temperature Precipitation Wind Pressure Humidity
    00:00 0°C° 0 mm 0 mps 577 mmHg 88%
    01:00 +1°C° 0 mm 1 mps 577 mmHg 90%
    02:00 +1°C° 0 mm 1 mps 577 mmHg 89%
    03:00 +1°C° 0 mm 1 mps 577 mmHg 89%
    04:00 +1°C° 0 mm 1 mps 577 mmHg 89%
    05:00 +1°C° 0 mm 1 mps 577 mmHg 87%
    06:00 0°C° 0 mm 1 mps 577 mmHg 86%
    07:00 +1°C° 0 mm 1 mps 578 mmHg 85%
    08:00 +3°C° 0 mm 1 mps 579 mmHg 75%
    09:00 +5°C° 0 mm 1 mps 580 mmHg 65%
    10:00 +7°C° 0 mm 1 mps 581 mmHg 55%
    11:00 +8°C° 0 mm 1 mps 582 mmHg 52%
    12:00 +8°C° 0 mm 2 mps 582 mmHg 48%
    13:00 +8°C° 0 mm 2 mps 582 mmHg 48%
    14:00 +8°C° 0 mm 2 mps 582 mmHg 52%
    15:00 +7°C° 0 mm 2 mps 582 mmHg 57%
    16:00 +6°C° 0 mm 2 mps 581 mmHg 61%
    17:00 +5°C° 0 mm 2 mps 581 mmHg 71%
    18:00 +3°C° 0 mm 2 mps 580 mmHg 81%
    19:00 +2°C° 0 mm 1 mps 579 mmHg 91%
    20:00 +1°C° 0 mm 1 mps 579 mmHg 91%
    21:00 +1°C° 0 mm 1 mps 578 mmHg 92%
    22:00 0°C° 0 mm 1 mps 578 mmHg 92%
    23:00 0°C° 0 mm 1 mps 578 mmHg 87%

    Tomorrow, 21 October, Sunday

    Time Temperature Precipitation Wind Pressure Humidity
    00:00 0°C° 0 mm 1 mps 578 mmHg 82%
    01:00 0°C° 0 mm 1 mps 578 mmHg 78%
    02:00 0°C° 0 mm 1 mps 578 mmHg 76%
    03:00 0°C° 0 mm 1 mps 577 mmHg 75%
    04:00 0°C° 0 mm 1 mps 577 mmHg 74%
    05:00 0°C° 0 mm 1 mps 577 mmHg 73%
    06:00 -2°C° 0 mm 2 mps 577 mmHg 73%
    07:00 -2°C° 0 mm 2 mps 577 mmHg 72%
    08:00 +1°C° 0 mm 2 mps 578 mmHg 63%
    09:00 +3°C° 0 mm 2 mps 579 mmHg 54%
    10:00 +4°C° 0 mm 3 mps 579 mmHg 45%
    11:00 +4°C° 0 mm 3 mps 579 mmHg 44%
    12:00 +5°C° 0 mm 3 mps 579 mmHg 42%
    13:00 +5°C° 0 mm 3 mps 579 mmHg 40%
    14:00 +4°C° 0 mm 3 mps 579 mmHg 45%
    15:00 +3°C° 0 mm 3 mps 578 mmHg 50%
    16:00 +3°C° 0 mm 3 mps 578 mmHg 55%
    17:00 +2°C° 0 mm 2 mps 577 mmHg 65%
    18:00 -2°C° 0 mm 2 mps 577 mmHg 76%
    19:00 -2°C° 0 mm 1 mps 576 mmHg 87%
    20:00 -2°C° 0 mm 1 mps 576 mmHg 84%
    21:00 -2°C° 0 mm 1 mps 576 mmHg 81%
    22:00 -2°C° 0 mm 1 mps 576 mmHg 78%
    23:00 -2°C° 0 mm 1 mps 576 mmHg 71%

    Day after tomorrow, 22 October, Monday

    Time Temperature Precipitation Wind Pressure Humidity
    00:00 -2°C° 0 mm 1 mps 576 mmHg 64%
    01:00 -2°C° 0 mm 1 mps 576 mmHg 57%
    02:00 -2°C° 0 mm 1 mps 575 mmHg 54%
    03:00 -2°C° 0 mm 1 mps 575 mmHg 51%
    04:00 -2°C° 0 mm 1 mps 575 mmHg 48%
    05:00 -2°C° 0 mm 1 mps 575 mmHg 48%
    06:00 -2°C° 0 mm 1 mps 575 mmHg 48%
    07:00 -2°C° 0 mm 1 mps 575 mmHg 48%
    08:00 0°C° 0 mm 1 mps 577 mmHg 45%
    09:00 +1°C° 0 mm 2 mps 578 mmHg 41%
    10:00 +3°C° 0 mm 2 mps 579 mmHg 37%
    11:00 +4°C° 0 mm 2 mps 579 mmHg 38%
    12:00 +5°C° 0 mm 2 mps 579 mmHg 38%
    13:00 +4°C° 0 mm 3 mps 579 mmHg 38%
    14:00 +4°C° 0 mm 3 mps 579 mmHg 44%
    15:00 +3°C° 0 mm 3 mps 579 mmHg 50%
    16:00 +2°C° 0 mm 3 mps 578 mmHg 56%
    17:00 +1°C° 0 mm 2 mps 578 mmHg 67%
    18:00 -2°C° 0 mm 2 mps 577 mmHg 79%
    19:00 -4°C° 0 mm 2 mps 577 mmHg 90%
    20:00 -4°C° 0 mm 2 mps 577 mmHg 90%
    21:00 -4°C° 0 mm 2 mps 578 mmHg 91%
    22:00 -4°C° 0 mm 2 mps 578 mmHg 91%
    23:00 -5°C° 0 mm 2 mps 578 mmHg 91%

    23 October, Tuesday

    Time Temperature Precipitation Wind Pressure Humidity
    00:00 -3°C° 0 mm 1 mps 578 mmHg 90%
    01:00 -3°C° 0 mm 1 mps 578 mmHg 90%
    02:00 -3°C° 0 mm 1 mps 577 mmHg 86%
    03:00 -5°C° 0 mm 2 mps 577 mmHg 82%
    04:00 -5°C° 0 mm 2 mps 577 mmHg 79%
    05:00 -5°C° 0 mm 2 mps 577 mmHg 77%
    06:00 -5°C° 0 mm 2 mps 577 mmHg 75%
    07:00 -5°C° 0 mm 2 mps 577 mmHg 73%
    08:00 -3°C° 0 mm 2 mps 578 mmHg 67%
    09:00 -1°C° 0 mm 2 mps 579 mmHg 60%
    10:00 +3°C° 0 mm 2 mps 580 mmHg 54%
    11:00 +4°C° 0 mm 2 mps 580 mmHg 50%
    12:00 +5°C° 0 mm 2 mps 581 mmHg 47%
    13:00 +4°C° 0 mm 3 mps 581 mmHg 44%
    14:00 +4°C° 0 mm 3 mps 580 mmHg 50%
    15:00 +4°C° 0 mm 2 mps 580 mmHg 55%
    16:00 +3°C° 0 mm 2 mps 579 mmHg 61%
    17:00 +1°C° 0 mm 2 mps 578 mmHg 70%
    18:00 -1°C° 0 mm 2 mps 578 mmHg 80%
    19:00 -3°C° 0 mm 2 mps 577 mmHg 90%
    20:00 -3°C° 0 mm 2 mps 577 mmHg 88%
    21:00 -4°C° 0 mm 2 mps 577 mmHg 85%
    22:00 -4°C° 0 mm 2 mps 577 mmHg 83%
    23:00 -3°C° 0 mm 2 mps 577 mmHg 77%

    24 October, Wednesday

    Time Temperature Precipitation Wind Pressure Humidity
    00:00 -2°C° 0 mm 2 mps 577 mmHg 71%
    01:00 -2°C° 0 mm 2 mps 577 mmHg 65%
    02:00 -2°C° 0.1 mm 2 mps 577 mmHg 68%
    03:00 -2°C° 0.1 mm 2 mps 577 mmHg 71%
    04:00 -2°C° 0.1 mm 3 mps 577 mmHg 74%
    05:00 -2°C° 0.1 mm 3 mps 576 mmHg 78%
    06:00 -2°C° 0.1 mm 3 mps 576 mmHg 82%
    07:00 -2°C° 0.1 mm 3 mps 576 mmHg 85%
    08:00 -1°C° 0.2 mm 3 mps 576 mmHg 85%
    09:00 -1°C° 0.2 mm 3 mps 577 mmHg 85%
    10:00 0°C° 0.2 mm 3 mps 577 mmHg 85%
    11:00 +1°C° 0.3 mm 3 mps 577 mmHg 85%
    12:00 +1°C° 0.3 mm 3 mps 577 mmHg 85%
    13:00 +1°C° 0.3 mm 3 mps 577 mmHg 85%
    14:00 +1°C° 0.4 mm 3 mps 577 mmHg 88%
    15:00 +1°C° 0.4 mm 3 mps 576 mmHg 90%
    16:00 0°C° 0.4 mm 3 mps 576 mmHg 92%
    17:00 0°C° 0.3 mm 3 mps 576 mmHg 93%
    18:00 0°C° 0.3 mm 3 mps 576 mmHg 95%
    19:00 -1°C° 0.3 mm 3 mps 577 mmHg 96%
    20:00 -1°C° 0.1 mm 3 mps 577 mmHg 96%
    21:00 -1°C° 0.1 mm 3 mps 577 mmHg 96%
    22:00 -1°C° 0.1 mm 3 mps 577 mmHg 96%
    23:00 -1°C° 0 mm 3 mps 577 mmHg 96%

    25 October, Thursday

    Time Temperature Precipitation Wind Pressure Humidity
    00:00 -1°C° 0 mm 2 mps 577 mmHg 96%
    01:00 -1°C° 0 mm 2 mps 577 mmHg 96%
    02:00 -2°C° 0 mm 2 mps 577 mmHg 96%
    03:00 -2°C° 0 mm 2 mps 576 mmHg 96%
    04:00 -2°C° 0 mm 2 mps 576 mmHg 96%
    05:00 -3°C° 0 mm 2 mps 576 mmHg 95%
    06:00 -3°C° 0 mm 2 mps 576 mmHg 95%
    07:00 -1°C° 0 mm 1 mps 576 mmHg 94%
    08:00 +1°C° 0 mm 1 mps 576 mmHg 87%
    09:00 +3°C° 0 mm 1 mps 577 mmHg 79%
    10:00 +5°C° 0 mm 1 mps 578 mmHg 72%
    11:00 +6°C° 0 mm 1 mps 578 mmHg 67%
    12:00 +7°C° 0 mm 1 mps 579 mmHg 62%
    13:00 +8°C° 0 mm 1 mps 579 mmHg 58%
    14:00 +8°C° 0 mm 1 mps 578 mmHg 62%
    15:00 +7°C° 0 mm 1 mps 578 mmHg 66%
    16:00 +6°C° 0 mm 1 mps 577 mmHg 70%
    17:00 +4°C° 0 mm 1 mps 576 mmHg 77%
    18:00 +3°C° 0 mm 1 mps 575 mmHg 84%
    19:00 +1°C° 0 mm 1 mps 574 mmHg 91%
    20:00 0°C° 0 mm 1 mps 574 mmHg 90%
    21:00 0°C° 0 mm 1 mps 574 mmHg 90%
    22:00 0°C° 0 mm 1 mps 574 mmHg 89%
    23:00 0°C° 0 mm 1 mps 574 mmHg 85%
    Show more